WB8ZTP Weather Reports


Display with metric or nautical units.
time (UTC)temp
F
wind
direction
speed
MPH
gust
MPH
rain 1hr
in
rain 24hr
in
rain mn
in
humidity
%
barometer
mb
20260505023006 62 149 0.0 4.0 0.00 0.00 0.00 76 1008.2
20260505021516 62 139 0.0 5.0 0.00 0.00 0.00 75 1008.1
20260505020005 62 148 0.0 3.0 0.00 0.00 0.00 76 1008.1
20260505014504 62 141 0.0 1.0 0.00 0.00 0.00 75 1008.0
20260505013004 63 155 0.0 3.0 0.00 0.00 0.00 74 1007.9
20260505011504 63 151 0.0 2.0 0.00 0.00 0.00 73 1007.8
20260505010004 65 151 0.0 1.0 0.00 0.00 0.00 71 1007.8
20260505004506 65 152 0.0 3.0 0.00 0.00 0.00 69 1007.8
20260505003002 66 178 0.0 6.0 0.00 0.00 0.00 67 1007.8
20260505001502 67 219 1.0 5.0 0.00 0.00 0.00 65 1007.7
20260505000001 67 131 2.0 6.0 0.00 0.00 0.00 65 1007.8
20260504234600 67 151 1.0 5.0 0.00 0.00 0.00 65 1007.8
20260504233102 68 178 0.0 5.0 0.00 0.00 0.00 64 1007.9
20260504231557 68 163 2.0 10.0 0.00 0.00 0.00 62 1008.0
20260504230056 69 189 1.0 7.0 0.00 0.00 0.00 62 1008.4
20260504224554 68 219 2.0 8.0 0.00 0.00 0.00 62 1008.7
20260504223059 68 186 3.0 12.0 0.00 0.00 0.00 62 1008.7
20260504221604 68 215 9.0 16.0 0.00 0.00 0.00 60 1008.6
20260504220118 69 191 5.0 16.0 0.00 0.00 0.00 60 1008.8
20260504214552 69 213 5.0 14.0 0.00 0.00 0.00 59 1008.9
20260504213103 68 201 4.0 8.0 0.00 0.00 0.00 63 1008.5
20260504211551 67 193 1.0 7.0 0.00 0.00 0.00 64 1008.5
20260504210048 68 219 6.0 17.0 0.00 0.00 0.00 63 1009.0
20260504204600 68 181 8.0 18.0 0.00 0.00 0.00 61 1009.2
20260504203046 69 177 8.0 23.0 0.00 0.00 0.00 59 1009.5
20260504201547 72 197 5.0 19.0 0.00 0.00 0.00 58 1009.6
20260504200047 71 174 6.0 17.0 0.00 0.00 0.00 57 1009.3
20260504194545 71 211 8.0 19.0 0.00 0.00 0.00 57 1009.6
20260504193042 71 185 8.0 16.0 0.00 0.00 0.00 56 1009.3
20260504191542 70 200 4.0 16.0 0.00 0.00 0.00 61 1009.4
20260504190040 70 185 5.0 15.0 0.00 0.00 0.00 58 1009.3
20260504184537 70 219 7.0 20.0 0.00 0.00 0.00 57 1009.6
20260504183034 69 220 6.0 15.0 0.00 0.00 0.00 59 1009.6
20260504181532 69 223 7.0 14.0 0.00 0.00 0.00 59 1009.7
20260504180029 68 252 7.0 17.0 0.00 0.00 0.00 59 1009.9
20260504174526 68 234 7.0 14.0 0.00 0.00 0.00 60 1010.0
20260504173024 67 180 7.0 14.0 0.00 0.00 0.00 62 1010.1
20260504171521 66 229 7.0 18.0 0.00 0.00 0.00 63 1010.2
20260504150104 61 194 6.0 15.0 0.00 0.00 0.00 66 1011.4
20260504081518 51 180 1.0 7.0 0.00 0.00 0.00 66 1013.4
20260504044542 50 155 1.0 5.0 0.00 0.00 0.00 69 1015.6
20260504043043 49 181 1.0 6.0 0.00 0.00 0.00 74 1015.7
20260504041536 48 195 0.0 5.0 0.00 0.00 0.00 77 1015.7
20260504040034 48 159 0.0 2.0 0.00 0.00 0.00 79 1015.8
20260504034532 47 163 0.0 0.0 0.00 0.00 0.00 81 1016.0
20260504033031 47 164 0.0 0.0 0.00 0.00 0.00 81 1016.1
20260504031532 47 164 0.0 0.0 0.00 0.00 0.00 79 1016.2
20260504030028 47 164 0.0 0.0 0.00 0.00 0.00 78 1016.3
20260504024530 48 164 0.0 0.0 0.00 0.00 0.00 76 1016.5
20260504023026 48 165 0.0 2.0 0.00 0.00 0.00 74 1016.6